Time,TemperatureF,DewpointF,PressureIn,WindDirection,WindDirectionDegrees,WindSpeedMPH,WindSpeedGustMPH,Humidity,HourlyPrecipIn,Conditions,Clouds,dailyrainin,SoftwareType,DateUTC
2013-05-11 00:03:00,49.4,47.5,30.25,SW,225,1.0,5.0,93,0.00,,,0.00,Wunderground v.1.15,2013-05-11 07:03:00,
2013-05-11 00:08:00,49.4,47.5,30.25,SW,225,1.0,5.0,93,0.00,,,0.00,Wunderground v.1.15,2013-05-11 07:08:00,
2013-05-11 00:13:00,49.4,47.5,30.25,SW,225,0.0,0.0,93,0.00,,,0.00,Wunderground v.1.15,2013-05-11 07:13:00,
2013-05-11 00:18:00,49.4,47.5,30.24,SW,225,0.0,0.0,93,0.00,,,0.00,Wunderground v.1.15,2013-05-11 07:18:00,
2013-05-11 00:24:00,49.3,47.1,30.24,SW,225,0.0,0.0,92,0.00,,,0.00,Wunderground v.1.15,2013-05-11 07:24:00,
2013-05-11 00:30:00,49.3,47.1,30.24,SW,225,0.0,0.0,92,0.00,,,0.00,Wunderground v.1.15,2013-05-11 07:30:00,
2013-05-11 00:36:00,49.3,47.1,30.24,SW,225,0.0,0.0,92,0.00,,,0.00,Wunderground v.1.15,2013-05-11 07:36:00,
2013-05-11 00:42:00,49.2,47.0,30.24,SW,225,0.0,0.0,92,0.00,,,0.00,Wunderground v.1.15,2013-05-11 07:42:00,
2013-05-11 00:47:00,49.2,47.0,30.24,SW,225,0.0,0.0,92,0.00,,,0.00,Wunderground v.1.15,2013-05-11 07:47:00,
2013-05-11 00:52:00,49.1,47.2,30.24,SW,225,0.0,0.0,93,0.00,,,0.00,Wunderground v.1.15,2013-05-11 07:52:00,
2013-05-11 00:58:00,49.1,47.2,30.23,SW,225,0.0,0.0,93,0.00,,,0.00,Wunderground v.1.15,2013-05-11 07:58:00,
2013-05-11 01:04:00,49.0,47.1,30.23,SW,225,0.0,4.0,93,0.00,,,0.00,Wunderground v.1.15,2013-05-11 08:04:00,
2013-05-11 01:10:00,49.0,47.1,30.23,SW,225,0.0,4.0,93,0.00,,,0.00,Wunderground v.1.15,2013-05-11 08:10:00,
2013-05-11 01:15:00,49.0,47.1,30.23,SW,225,0.0,4.0,93,0.00,,,0.00,Wunderground v.1.15,2013-05-11 08:15:00,
2013-05-11 01:20:00,48.9,47.0,30.23,SW,225,0.0,4.0,93,0.00,,,0.00,Wunderground v.1.15,2013-05-11 08:20:00,
2013-05-11 01:25:00,48.8,46.9,30.22,SW,225,1.0,4.0,93,0.00,,,0.00,Wunderground v.1.15,2013-05-11 08:25:00,
2013-05-11 01:30:00,48.7,46.8,30.21,SE,136,2.0,5.0,93,0.00,,,0.00,Wunderground v.1.15,2013-05-11 08:30:00,
2013-05-11 01:35:00,48.6,46.7,30.21,ESE,117,3.0,7.0,93,0.00,,,0.00,Wunderground v.1.15,2013-05-11 08:35:00,
2013-05-11 01:41:00,48.5,46.6,30.21,ESE,115,4.0,4.0,93,0.00,,,0.00,Wunderground v.1.15,2013-05-11 08:41:00,
2013-05-11 01:46:00,48.5,46.6,30.20,ESE,106,4.0,5.0,93,0.00,,,0.00,Wunderground v.1.15,2013-05-11 08:46:00,
2013-05-11 01:51:00,48.5,46.6,30.20,ESE,105,4.0,4.0,93,0.00,,,0.00,Wunderground v.1.15,2013-05-11 08:51:00,
2013-05-11 01:57:00,48.5,46.6,30.21,ESE,105,2.0,4.0,93,0.00,,,0.00,Wunderground v.1.15,2013-05-11 08:57:00,
2013-05-11 02:02:00,48.5,46.6,30.21,ESE,105,1.0,4.0,93,0.00,,,0.00,Wunderground v.1.15,2013-05-11 09:02:00,
2013-05-11 02:08:00,48.5,46.6,30.21,ESE,105,0.0,4.0,93,0.00,,,0.00,Wunderground v.1.15,2013-05-11 09:08:00,
2013-05-11 02:13:00,48.4,46.5,30.21,ESE,105,0.0,4.0,93,0.00,,,0.00,Wunderground v.1.15,2013-05-11 09:13:00,
2013-05-11 02:18:00,48.4,46.5,30.21,ESE,105,0.0,4.0,93,0.00,,,0.00,Wunderground v.1.15,2013-05-11 09:18:00,
2013-05-11 02:23:00,48.3,46.4,30.21,ESE,105,0.0,4.0,93,0.00,,,0.00,Wunderground v.1.15,2013-05-11 09:23:00,
2013-05-11 02:29:00,48.1,46.2,30.21,ESE,105,0.0,4.0,93,0.00,,,0.00,Wunderground v.1.15,2013-05-11 09:29:00,
2013-05-11 02:35:00,47.9,46.0,30.21,ESE,105,0.0,4.0,93,0.00,,,0.00,Wunderground v.1.15,2013-05-11 09:35:00,
2013-05-11 02:41:00,48.0,46.4,30.20,ESE,105,0.0,4.0,94,0.00,,,0.00,Wunderground v.1.15,2013-05-11 09:41:00,
2013-05-11 02:46:00,48.0,46.4,30.20,ESE,105,2.0,4.0,94,0.00,,,0.00,Wunderground v.1.15,2013-05-11 09:46:00,
2013-05-11 02:52:00,47.9,46.3,30.20,ESE,105,3.0,4.0,94,0.00,,,0.00,Wunderground v.1.15,2013-05-11 09:52:00,
2013-05-11 02:58:00,47.7,46.1,30.20,ESE,105,3.0,4.0,94,0.00,,,0.00,Wunderground v.1.15,2013-05-11 09:58:00,
2013-05-11 03:04:00,47.6,46.0,30.19,ESE,105,2.0,4.0,94,0.00,,,0.00,Wunderground v.1.15,2013-05-11 10:04:00,
2013-05-11 03:09:00,47.6,46.0,30.18,ESE,105,3.0,4.0,94,0.00,,,0.00,Wunderground v.1.15,2013-05-11 10:09:00,
2013-05-11 03:15:00,47.6,46.0,30.18,ESE,105,4.0,5.0,94,0.00,,,0.00,Wunderground v.1.15,2013-05-11 10:15:00,
2013-05-11 03:21:00,47.5,45.9,30.18,ESE,105,3.0,4.0,94,0.00,,,0.00,Wunderground v.1.15,2013-05-11 10:21:00,
2013-05-11 03:27:00,47.4,45.8,30.17,ESE,105,2.0,4.0,94,0.00,,,0.00,Wunderground v.1.15,2013-05-11 10:27:00,
2013-05-11 03:32:00,47.3,45.7,30.17,ESE,105,2.0,4.0,94,0.00,,,0.00,Wunderground v.1.15,2013-05-11 10:32:00,
2013-05-11 03:38:00,47.2,45.6,30.16,ESE,105,2.0,4.0,94,0.00,,,0.00,Wunderground v.1.15,2013-05-11 10:38:00,
2013-05-11 03:43:00,47.1,45.5,30.16,ESE,105,1.0,4.0,94,0.00,,,0.00,Wunderground v.1.15,2013-05-11 10:43:00,
2013-05-11 03:48:00,47.1,45.7,30.16,ESE,105,1.0,4.0,95,0.00,,,0.00,Wunderground v.1.15,2013-05-11 10:48:00,
2013-05-11 03:53:00,47.1,45.7,30.16,ESE,105,1.0,4.0,95,0.00,,,0.00,Wunderground v.1.15,2013-05-11 10:53:00,
2013-05-11 03:59:00,47.1,45.7,30.15,ESE,105,2.0,4.0,95,0.00,,,0.00,Wunderground v.1.15,2013-05-11 10:59:00,
2013-05-11 04:05:00,47.2,45.8,30.16,ESE,105,2.0,4.0,95,0.00,,,0.00,Wunderground v.1.15,2013-05-11 11:05:00,
2013-05-11 04:10:00,47.2,45.8,30.16,ESE,105,1.0,4.0,95,0.00,,,0.00,Wunderground v.1.15,2013-05-11 11:10:00,
2013-05-11 04:16:00,47.2,45.8,30.15,ESE,105,1.0,4.0,95,0.00,,,0.00,Wunderground v.1.15,2013-05-11 11:16:00,
2013-05-11 04:22:00,47.2,45.8,30.15,ESE,105,2.0,4.0,95,0.00,,,0.00,Wunderground v.1.15,2013-05-11 11:22:00,
2013-05-11 04:27:00,47.2,45.8,30.15,ESE,105,3.0,4.0,95,0.00,,,0.00,Wunderground v.1.15,2013-05-11 11:27:00,
2013-05-11 04:33:00,47.2,45.8,30.15,ESE,105,3.0,5.0,95,0.00,,,0.00,Wunderground v.1.15,2013-05-11 11:33:00,
2013-05-11 04:38:00,47.3,45.9,30.15,ESE,105,4.0,5.0,95,0.00,,,0.00,Wunderground v.1.15,2013-05-11 11:38:00,
2013-05-11 04:44:00,47.5,46.1,30.15,ESE,105,4.0,4.0,95,0.00,,,0.00,Wunderground v.1.15,2013-05-11 11:44:00,
2013-05-11 04:49:00,47.6,46.2,30.15,ESE,105,3.0,4.0,95,0.00,,,0.00,Wunderground v.1.15,2013-05-11 11:49:00,
2013-05-11 04:54:00,47.4,46.0,30.14,ESE,105,3.0,4.0,95,0.00,,,0.00,Wunderground v.1.15,2013-05-11 11:54:00,
2013-05-11 05:00:00,47.4,46.0,30.14,ESE,105,4.0,4.0,95,0.00,,,0.00,Wunderground v.1.15,2013-05-11 12:00:00,
2013-05-11 05:05:00,47.4,46.0,30.13,ESE,105,4.0,4.0,95,0.00,,,0.00,Wunderground v.1.15,2013-05-11 12:05:00,
2013-05-11 05:11:00,47.4,46.0,30.13,ESE,105,3.0,4.0,95,0.00,,,0.00,Wunderground v.1.15,2013-05-11 12:11:00,
2013-05-11 05:17:00,47.4,46.0,30.14,ESE,105,2.0,4.0,95,0.00,,,0.00,Wunderground v.1.15,2013-05-11 12:17:00,
2013-05-11 05:23:00,47.4,46.0,30.14,ESE,105,1.0,4.0,95,0.00,,,0.00,Wunderground v.1.15,2013-05-11 12:23:00,
2013-05-11 05:28:00,47.3,45.9,30.14,ESE,105,0.0,4.0,95,0.00,,,0.00,Wunderground v.1.15,2013-05-11 12:28:00,
2013-05-11 05:33:00,47.3,45.9,30.14,ESE,105,0.0,4.0,95,0.00,,,0.00,Wunderground v.1.15,2013-05-11 12:33:00,
2013-05-11 05:39:00,47.4,46.0,30.14,ESE,105,1.0,4.0,95,0.00,,,0.00,Wunderground v.1.15,2013-05-11 12:39:00,
2013-05-11 05:44:00,47.5,46.1,30.14,ESE,105,1.0,4.0,95,0.00,,,0.00,Wunderground v.1.15,2013-05-11 12:44:00,
2013-05-11 05:49:00,47.6,46.2,30.14,ESE,105,2.0,4.0,95,0.00,,,0.00,Wunderground v.1.15,2013-05-11 12:49:00,
2013-05-11 05:55:00,47.5,46.1,30.14,ESE,105,2.0,4.0,95,0.00,,,0.00,Wunderground v.1.15,2013-05-11 12:55:00,
2013-05-11 06:00:00,47.5,46.1,30.14,ESE,105,2.0,2.0,95,0.00,,,0.00,Wunderground v.1.15,2013-05-11 13:00:00,
2013-05-11 06:06:00,47.5,46.1,30.14,ESE,105,2.0,4.0,95,0.00,,,0.00,Wunderground v.1.15,2013-05-11 13:06:00,
2013-05-11 06:12:00,47.5,46.1,30.14,ESE,105,2.0,4.0,95,0.00,,,0.00,Wunderground v.1.15,2013-05-11 13:12:00,
2013-05-11 06:18:00,47.6,46.5,30.13,ESE,105,3.0,5.0,96,0.00,,,0.00,Wunderground v.1.15,2013-05-11 13:18:00,
2013-05-11 06:23:00,47.6,46.2,30.13,ESE,105,3.0,4.0,95,0.00,,,0.00,Wunderground v.1.15,2013-05-11 13:23:00,
2013-05-11 06:29:00,47.4,46.0,30.13,ESE,105,3.0,5.0,95,0.00,,,0.00,Wunderground v.1.15,2013-05-11 13:29:00,
2013-05-11 06:35:00,47.3,46.2,30.13,ESE,105,3.0,4.0,96,0.00,,,0.00,Wunderground v.1.15,2013-05-11 13:35:00,
2013-05-11 06:40:00,47.4,46.3,30.13,ESE,105,3.0,4.0,96,0.00,,,0.00,Wunderground v.1.15,2013-05-11 13:40:00,
2013-05-11 06:46:00,47.8,46.7,30.13,ESE,105,2.0,4.0,96,0.00,,,0.00,Wunderground v.1.15,2013-05-11 13:46:00,
2013-05-11 06:52:00,48.2,47.1,30.12,ESE,105,2.0,4.0,96,0.00,,,0.00,Wunderground v.1.15,2013-05-11 13:52:00,
2013-05-11 06:58:00,48.2,47.1,30.13,ESE,105,2.0,4.0,96,0.00,,,0.00,Wunderground v.1.15,2013-05-11 13:58:00,
2013-05-11 07:03:00,48.1,47.0,30.13,ESE,105,1.0,4.0,96,0.00,,,0.00,Wunderground v.1.15,2013-05-11 14:03:00,
2013-05-11 07:09:00,48.0,46.9,30.13,ESE,105,0.0,4.0,96,0.00,,,0.00,Wunderground v.1.15,2013-05-11 14:09:00,
2013-05-11 07:14:00,47.9,46.8,30.13,ESE,105,0.0,4.0,96,0.00,,,0.00,Wunderground v.1.15,2013-05-11 14:14:00,
2013-05-11 07:19:00,47.9,46.8,30.13,ESE,105,0.0,4.0,96,0.00,,,0.00,Wunderground v.1.15,2013-05-11 14:19:00,
2013-05-11 07:25:00,48.2,47.1,30.13,ESE,105,0.0,4.0,96,0.00,,,0.00,Wunderground v.1.15,2013-05-11 14:25:00,
2013-05-11 07:31:00,48.5,47.4,30.13,ESE,105,1.0,4.0,96,0.00,,,0.00,Wunderground v.1.15,2013-05-11 14:31:00,
2013-05-11 07:36:00,49.0,47.9,30.13,ESE,105,1.0,4.0,96,0.00,,,0.00,Wunderground v.1.15,2013-05-11 14:36:00,
2013-05-11 07:42:00,49.3,48.2,30.13,ESE,105,2.0,4.0,96,0.00,,,0.00,Wunderground v.1.15,2013-05-11 14:42:00,
2013-05-11 07:47:00,49.7,48.6,30.13,ESE,105,2.0,4.0,96,0.00,,,0.00,Wunderground v.1.15,2013-05-11 14:47:00,
2013-05-11 07:53:00,49.6,48.5,30.13,ESE,105,2.0,4.0,96,0.00,,,0.00,Wunderground v.1.15,2013-05-11 14:53:00,
2013-05-11 07:58:00,49.4,48.0,30.13,ESE,105,3.0,4.0,95,0.00,,,0.00,Wunderground v.1.15,2013-05-11 14:58:00,
2013-05-11 08:04:00,49.6,48.5,30.13,ESE,105,3.0,7.0,96,0.00,,,0.00,Wunderground v.1.15,2013-05-11 15:04:00,
2013-05-11 08:09:00,49.9,48.8,30.13,ESE,105,4.0,8.0,96,0.00,,,0.00,Wunderground v.1.15,2013-05-11 15:09:00,
2013-05-11 08:14:00,50.2,48.8,30.13,ESE,105,3.0,4.0,95,0.00,,,0.00,Wunderground v.1.15,2013-05-11 15:14:00,
2013-05-11 08:19:00,50.5,49.1,30.12,ESE,105,3.0,4.0,95,0.00,,,0.00,Wunderground v.1.15,2013-05-11 15:19:00,
2013-05-11 08:25:00,50.8,49.4,30.12,ESE,105,3.0,7.0,95,0.00,,,0.00,Wunderground v.1.15,2013-05-11 15:25:00,
2013-05-11 08:31:00,51.0,49.6,30.12,East,99,3.0,4.0,95,0.00,,,0.00,Wunderground v.1.15,2013-05-11 15:31:00,
2013-05-11 08:36:00,51.6,50.2,30.11,East,99,3.0,6.0,95,0.00,,,0.00,Wunderground v.1.15,2013-05-11 15:36:00,
2013-05-11 08:42:00,51.7,50.0,30.11,ENE,59,3.0,7.0,94,0.00,,,0.00,Wunderground v.1.15,2013-05-11 15:42:00,
2013-05-11 08:47:00,51.5,49.8,30.12,NE,34,5.0,7.0,94,0.00,,,0.00,Wunderground v.1.15,2013-05-11 15:47:00,
2013-05-11 08:52:00,51.2,49.2,30.12,NNE,32,5.0,5.0,93,0.00,,,0.00,Wunderground v.1.15,2013-05-11 15:52:00,
2013-05-11 08:58:00,50.8,48.8,30.12,NNE,26,4.0,6.0,93,0.00,,,0.00,Wunderground v.1.15,2013-05-11 15:58:00,
2013-05-11 09:03:00,51.2,49.8,30.11,NNE,26,4.0,5.0,95,0.00,,,0.00,Wunderground v.1.15,2013-05-11 16:03:00,
2013-05-11 09:08:00,52.4,50.7,30.12,NNE,26,3.0,5.0,94,0.00,,,0.00,Wunderground v.1.15,2013-05-11 16:08:00,
2013-05-11 09:14:00,52.7,50.7,30.12,NNE,28,3.0,4.0,93,0.00,,,0.00,Wunderground v.1.15,2013-05-11 16:14:00,
2013-05-11 09:19:00,53.2,51.5,30.11,NNE,32,3.0,6.0,94,0.00,,,0.00,Wunderground v.1.15,2013-05-11 16:19:00,
2013-05-11 09:24:00,53.7,51.4,30.11,NNE,32,3.0,4.0,92,0.00,,,0.00,Wunderground v.1.15,2013-05-11 16:24:00,
2013-05-11 09:30:00,54.2,52.2,30.11,NNE,32,3.0,6.0,93,0.00,,,0.00,Wunderground v.1.15,2013-05-11 16:30:00,
2013-05-11 09:36:00,53.6,51.3,30.11,NNE,30,3.0,6.0,92,0.00,,,0.00,Wunderground v.1.15,2013-05-11 16:36:00,
2013-05-11 09:41:00,52.9,50.0,30.11,NNE,30,3.0,4.0,90,0.00,,,0.00,Wunderground v.1.15,2013-05-11 16:41:00,
2013-05-11 09:46:00,53.0,50.7,30.10,NNE,30,3.0,4.0,92,0.00,,,0.00,Wunderground v.1.15,2013-05-11 16:46:00,
2013-05-11 09:52:00,53.3,50.7,30.11,NNE,30,3.0,4.0,91,0.00,,,0.00,Wunderground v.1.15,2013-05-11 16:52:00,
2013-05-11 09:57:00,53.9,51.6,30.11,NNE,30,3.0,4.0,92,0.00,,,0.00,Wunderground v.1.15,2013-05-11 16:57:00,
2013-05-11 10:02:00,54.8,52.2,30.10,NNE,30,2.0,4.0,91,0.00,,,0.00,Wunderground v.1.15,2013-05-11 17:02:00,
2013-05-11 10:08:00,55.2,52.0,30.11,NNE,30,3.0,4.0,89,0.00,,,0.00,Wunderground v.1.15,2013-05-11 17:08:00,
2013-05-11 10:14:00,54.4,51.2,30.11,NNE,30,3.0,4.0,89,0.00,,,0.00,Wunderground v.1.15,2013-05-11 17:14:00,
2013-05-11 10:20:00,53.5,50.3,30.11,NNE,30,3.0,5.0,89,0.00,,,0.00,Wunderground v.1.15,2013-05-11 17:20:00,
2013-05-11 10:25:00,53.1,50.2,30.11,NNE,30,4.0,5.0,90,0.00,,,0.00,Wunderground v.1.15,2013-05-11 17:25:00,
2013-05-11 10:31:00,52.9,50.0,30.11,NNE,30,3.0,4.0,90,0.00,,,0.00,Wunderground v.1.15,2013-05-11 17:31:00,
2013-05-11 10:37:00,53.6,51.0,30.11,NNE,30,3.0,4.0,91,0.00,,,0.00,Wunderground v.1.15,2013-05-11 17:37:00,
2013-05-11 10:43:00,54.0,51.4,30.11,NNE,30,3.0,4.0,91,0.00,,,0.00,Wunderground v.1.15,2013-05-11 17:43:00,
2013-05-11 10:48:00,54.4,51.5,30.11,NNE,30,3.0,4.0,90,0.00,,,0.00,Wunderground v.1.15,2013-05-11 17:48:00,
2013-05-11 10:54:00,54.4,51.2,30.11,NNE,30,3.0,4.0,89,0.00,,,0.00,Wunderground v.1.15,2013-05-11 17:54:00,
2013-05-11 10:59:00,53.4,49.9,30.12,NNE,30,4.0,5.0,88,0.00,,,0.00,Wunderground v.1.15,2013-05-11 17:59:00,
2013-05-11 11:05:00,52.8,49.9,30.11,NNE,30,4.0,5.0,90,0.00,,,0.00,Wunderground v.1.15,2013-05-11 18:05:00,
2013-05-11 11:10:00,52.3,49.5,30.12,NNE,30,4.0,4.0,90,0.00,,,0.00,Wunderground v.1.15,2013-05-11 18:10:00,
2013-05-11 11:16:00,52.2,49.7,30.12,NNE,30,5.0,6.0,91,0.00,,,0.00,Wunderground v.1.15,2013-05-11 18:16:00,
2013-05-11 11:21:00,52.2,49.7,30.13,NNE,30,4.0,4.0,91,0.00,,,0.00,Wunderground v.1.15,2013-05-11 18:21:00,
2013-05-11 11:27:00,52.6,50.3,30.12,NNE,30,4.0,5.0,92,0.00,,,0.00,Wunderground v.1.15,2013-05-11 18:27:00,
2013-05-11 11:33:00,53.0,50.4,30.12,NNE,30,4.0,5.0,91,0.00,,,0.00,Wunderground v.1.15,2013-05-11 18:33:00,
2013-05-11 11:39:00,53.4,50.8,30.12,NNE,30,4.0,6.0,91,0.00,,,0.00,Wunderground v.1.15,2013-05-11 18:39:00,
2013-05-11 11:45:00,53.9,51.0,30.12,NE,56,4.0,6.0,90,0.00,,,0.00,Wunderground v.1.15,2013-05-11 18:45:00,
2013-05-11 11:50:00,54.4,51.2,30.12,NE,55,4.0,4.0,89,0.00,,,0.00,Wunderground v.1.15,2013-05-11 18:50:00,
2013-05-11 11:56:00,54.3,50.8,30.12,NE,51,4.0,5.0,88,0.00,,,0.00,Wunderground v.1.15,2013-05-11 18:56:00,
2013-05-11 12:01:00,54.5,51.3,30.12,NE,48,3.0,4.0,89,0.00,,,0.00,Wunderground v.1.15,2013-05-11 19:01:00,
2013-05-11 12:07:00,55.1,51.9,30.12,NE,48,3.0,4.0,89,0.00,,,0.00,Wunderground v.1.15,2013-05-11 19:07:00,
2013-05-11 12:12:00,55.5,52.0,30.11,NE,48,3.0,4.0,88,0.00,,,0.00,Wunderground v.1.15,2013-05-11 19:12:00,
2013-05-11 12:17:00,54.7,50.6,30.12,NE,48,3.0,4.0,86,0.00,,,0.00,Wunderground v.1.15,2013-05-11 19:17:00,
2013-05-11 12:22:00,54.3,50.8,30.12,NE,48,3.0,6.0,88,0.00,,,0.00,Wunderground v.1.15,2013-05-11 19:22:00,
2013-05-11 12:28:00,53.8,50.3,30.12,NE,45,4.0,6.0,88,0.00,,,0.00,Wunderground v.1.15,2013-05-11 19:28:00,
2013-05-11 12:33:00,53.2,50.0,30.11,NE,44,4.0,5.0,89,0.00,,,0.00,Wunderground v.1.15,2013-05-11 19:33:00,
2013-05-11 12:38:00,53.0,49.8,30.11,NE,44,4.0,5.0,89,0.00,,,0.00,Wunderground v.1.15,2013-05-11 19:38:00,
2013-05-11 12:44:00,53.0,50.1,30.12,NE,44,3.0,4.0,90,0.00,,,0.00,Wunderground v.1.15,2013-05-11 19:44:00,
2013-05-11 12:49:00,53.1,49.9,30.12,NE,44,3.0,4.0,89,0.00,,,0.00,Wunderground v.1.15,2013-05-11 19:49:00,
2013-05-11 12:54:00,53.3,50.1,30.11,NE,44,3.0,4.0,89,0.00,,,0.00,Wunderground v.1.15,2013-05-11 19:54:00,
2013-05-11 13:00:00,53.5,50.3,30.11,NE,44,3.0,4.0,89,0.00,,,0.00,Wunderground v.1.15,2013-05-11 20:00:00,
2013-05-11 13:05:00,53.8,50.3,30.11,NE,44,3.0,4.0,88,0.00,,,0.00,Wunderground v.1.15,2013-05-11 20:05:00,
2013-05-11 13:10:00,54.1,50.6,30.11,NE,44,3.0,3.0,88,0.00,,,0.00,Wunderground v.1.15,2013-05-11 20:10:00,
2013-05-11 13:16:00,54.1,50.6,30.10,NE,44,3.0,4.0,88,0.00,,,0.00,Wunderground v.1.15,2013-05-11 20:16:00,
2013-05-11 13:21:00,54.4,50.9,30.11,NE,44,3.0,4.0,88,0.00,,,0.00,Wunderground v.1.15,2013-05-11 20:21:00,
2013-05-11 13:27:00,54.2,50.7,30.11,NE,44,4.0,5.0,88,0.00,,,0.00,Wunderground v.1.15,2013-05-11 20:27:00,
2013-05-11 13:32:00,54.0,50.5,30.11,NNE,15,4.0,6.0,88,0.00,,,0.00,Wunderground v.1.15,2013-05-11 20:32:00,
2013-05-11 13:38:00,54.0,50.8,30.11,NNE,14,5.0,6.0,89,0.00,,,0.00,Wunderground v.1.15,2013-05-11 20:38:00,
2013-05-11 13:43:00,53.8,50.6,30.11,NNE,13,4.0,5.0,89,0.00,,,0.00,Wunderground v.1.15,2013-05-11 20:43:00,
2013-05-11 13:49:00,53.6,50.7,30.11,NNE,13,4.0,5.0,90,0.00,,,0.00,Wunderground v.1.15,2013-05-11 20:49:00,
2013-05-11 13:55:00,53.3,50.1,30.11,NNE,13,4.0,5.0,89,0.00,,,0.00,Wunderground v.1.15,2013-05-11 20:55:00,
2013-05-11 14:00:00,53.4,50.5,30.11,NNE,13,3.0,4.0,90,0.00,,,0.00,Wunderground v.1.15,2013-05-11 21:00:00,
2013-05-11 14:06:00,53.3,50.4,30.12,NNE,13,3.0,4.0,90,0.00,,,0.00,Wunderground v.1.15,2013-05-11 21:06:00,
2013-05-11 14:11:00,53.4,50.5,30.12,NNE,13,3.0,5.0,90,0.00,,,0.00,Wunderground v.1.15,2013-05-11 21:11:00,
2013-05-11 14:16:00,53.5,50.6,30.12,NNE,13,3.0,5.0,90,0.00,,,0.00,Wunderground v.1.15,2013-05-11 21:16:00,
2013-05-11 14:22:00,53.5,50.6,30.12,NNE,13,3.0,4.0,90,0.00,,,0.00,Wunderground v.1.15,2013-05-11 21:22:00,
2013-05-11 14:28:00,53.4,50.5,30.12,NNE,13,3.0,4.0,90,0.00,,,0.00,Wunderground v.1.15,2013-05-11 21:28:00,
2013-05-11 14:34:00,53.5,50.6,30.12,NNE,13,4.0,4.0,90,0.00,,,0.00,Wunderground v.1.15,2013-05-11 21:34:00,
2013-05-11 14:40:00,53.5,50.6,30.12,NNE,13,4.0,4.0,90,0.00,,,0.00,Wunderground v.1.15,2013-05-11 21:40:00,
2013-05-11 14:45:00,53.8,50.9,30.12,NNE,13,4.0,5.0,90,0.00,,,0.00,Wunderground v.1.15,2013-05-11 21:45:00,
2013-05-11 14:50:00,54.0,51.1,30.12,NNE,13,4.0,5.0,90,0.00,,,0.00,Wunderground v.1.15,2013-05-11 21:50:00,
2013-05-11 14:56:00,53.6,50.4,30.12,NNE,13,4.0,5.0,89,0.00,,,0.00,Wunderground v.1.15,2013-05-11 21:56:00,
2013-05-11 15:02:00,53.4,50.5,30.12,NNE,13,4.0,4.0,90,0.00,,,0.00,Wunderground v.1.15,2013-05-11 22:02:00,
2013-05-11 15:08:00,53.8,51.2,30.11,NNE,13,3.0,4.0,91,0.00,,,0.00,Wunderground v.1.15,2013-05-11 22:08:00,
2013-05-11 15:13:00,54.2,51.3,30.11,NNE,13,4.0,4.0,90,0.00,,,0.00,Wunderground v.1.15,2013-05-11 22:13:00,
2013-05-11 15:19:00,54.5,51.3,30.11,NNE,13,3.0,5.0,89,0.00,,,0.00,Wunderground v.1.15,2013-05-11 22:19:00,
2013-05-11 15:25:00,54.8,51.3,30.11,NNE,13,3.0,4.0,88,0.00,,,0.00,Wunderground v.1.15,2013-05-11 22:25:00,
2013-05-11 15:30:00,55.2,51.4,30.11,NNE,13,3.0,4.0,87,0.00,,,0.00,Wunderground v.1.15,2013-05-11 22:30:00,
2013-05-11 15:36:00,55.4,51.3,30.11,NNE,13,4.0,5.0,86,0.00,,,0.00,Wunderground v.1.15,2013-05-11 22:36:00,
2013-05-11 15:41:00,55.4,51.3,30.10,NNE,13,3.0,4.0,86,0.00,,,0.00,Wunderground v.1.15,2013-05-11 22:41:00,
2013-05-11 15:47:00,55.7,51.3,30.10,NNE,13,4.0,4.0,85,0.00,,,0.00,Wunderground v.1.15,2013-05-11 22:47:00,
2013-05-11 15:53:00,55.6,51.2,30.10,NNE,13,4.0,4.0,85,0.00,,,0.00,Wunderground v.1.15,2013-05-11 22:53:00,
2013-05-11 15:59:00,55.9,51.1,30.10,NNE,13,3.0,4.0,84,0.00,,,0.00,Wunderground v.1.15,2013-05-11 22:59:00,
2013-05-11 16:04:00,55.5,50.7,30.10,NNE,13,3.0,4.0,84,0.00,,,0.00,Wunderground v.1.15,2013-05-11 23:04:00,
2013-05-11 16:10:00,55.7,50.9,30.10,NNE,13,3.0,3.0,84,0.00,,,0.00,Wunderground v.1.15,2013-05-11 23:10:00,
2013-05-11 16:16:00,56.3,51.5,30.10,NNE,13,3.0,5.0,84,0.00,,,0.00,Wunderground v.1.15,2013-05-11 23:16:00,
2013-05-11 16:22:00,56.9,51.8,30.09,NNE,13,3.0,4.0,83,0.00,,,0.00,Wunderground v.1.15,2013-05-11 23:22:00,
2013-05-11 16:27:00,57.1,51.7,30.09,NNE,13,3.0,4.0,82,0.00,,,0.00,Wunderground v.1.15,2013-05-11 23:27:00,
2013-05-11 16:33:00,57.4,51.9,30.08,NNE,16,3.0,4.0,82,0.00,,,0.00,Wunderground v.1.15,2013-05-11 23:33:00,
2013-05-11 16:39:00,57.4,51.6,30.09,NNE,16,3.0,4.0,81,0.00,,,0.00,Wunderground v.1.15,2013-05-11 23:39:00,
2013-05-11 16:44:00,56.6,50.8,30.09,NNE,16,3.0,4.0,81,0.00,,,0.00,Wunderground v.1.15,2013-05-11 23:44:00,
2013-05-11 16:50:00,56.7,51.3,30.08,NNE,16,3.0,4.0,82,0.00,,,0.00,Wunderground v.1.15,2013-05-11 23:50:00,
2013-05-11 16:55:00,57.1,51.7,30.08,NNE,16,3.0,5.0,82,0.00,,,0.00,Wunderground v.1.15,2013-05-11 23:55:00,
2013-05-11 17:01:00,56.9,51.5,30.08,NNE,16,3.0,4.0,82,0.00,,,0.00,Wunderground v.1.15,2013-05-12 00:01:00,
2013-05-11 17:07:00,56.4,51.0,30.08,NNE,16,3.0,5.0,82,0.00,,,0.00,Wunderground v.1.15,2013-05-12 00:07:00,
2013-05-11 17:13:00,56.1,51.0,30.08,NNE,16,3.0,4.0,83,0.00,,,0.00,Wunderground v.1.15,2013-05-12 00:13:00,
2013-05-11 17:18:00,55.8,50.7,30.08,NNE,16,3.0,4.0,83,0.00,,,0.00,Wunderground v.1.15,2013-05-12 00:18:00,
2013-05-11 17:24:00,55.4,50.6,30.08,NNE,16,3.0,4.0,84,0.00,,,0.00,Wunderground v.1.15,2013-05-12 00:24:00,
2013-05-11 17:29:00,55.4,50.6,30.08,NNE,16,3.0,4.0,84,0.00,,,0.00,Wunderground v.1.15,2013-05-12 00:29:00,
2013-05-11 17:35:00,55.3,50.9,30.08,NNE,16,3.0,4.0,85,0.00,,,0.00,Wunderground v.1.15,2013-05-12 00:35:00,
2013-05-11 17:40:00,55.2,50.4,30.08,NNE,16,2.0,4.0,84,0.00,,,0.00,Wunderground v.1.15,2013-05-12 00:40:00,
2013-05-11 17:45:00,55.2,50.8,30.09,NNE,16,3.0,4.0,85,0.00,,,0.00,Wunderground v.1.15,2013-05-12 00:45:00,
2013-05-11 17:51:00,54.8,50.7,30.08,NNE,16,3.0,4.0,86,0.00,,,0.00,Wunderground v.1.15,2013-05-12 00:51:00,
2013-05-11 17:57:00,54.7,50.9,30.09,NNE,15,4.0,5.0,87,0.00,,,0.00,Wunderground v.1.15,2013-05-12 00:57:00,
2013-05-11 18:03:00,54.7,50.9,30.09,NNE,12,3.0,5.0,87,0.00,,,0.00,Wunderground v.1.15,2013-05-12 01:03:00,
2013-05-11 18:08:00,54.7,51.2,30.09,NNE,12,3.0,5.0,88,0.00,,,0.00,Wunderground v.1.15,2013-05-12 01:08:00,
2013-05-11 18:14:00,54.4,50.9,30.09,North,11,3.0,4.0,88,0.00,,,0.00,Wunderground v.1.15,2013-05-12 01:14:00,
2013-05-11 18:20:00,54.5,51.3,30.09,North,11,3.0,4.0,89,0.00,,,0.00,Wunderground v.1.15,2013-05-12 01:20:00,
2013-05-11 18:26:00,54.4,51.2,30.10,North,11,3.0,4.0,89,0.00,,,0.00,Wunderground v.1.15,2013-05-12 01:26:00,
2013-05-11 18:32:00,54.2,51.0,30.10,North,11,3.0,4.0,89,0.00,,,0.00,Wunderground v.1.15,2013-05-12 01:32:00,
2013-05-11 18:38:00,54.4,51.2,30.10,North,11,2.0,4.0,89,0.00,,,0.00,Wunderground v.1.15,2013-05-12 01:38:00,
2013-05-11 18:43:00,54.8,51.6,30.09,North,11,1.0,4.0,89,0.00,,,0.00,Wunderground v.1.15,2013-05-12 01:43:00,
2013-05-11 18:48:00,55.3,52.1,30.09,North,11,1.0,4.0,89,0.00,,,0.00,Wunderground v.1.15,2013-05-12 01:48:00,
2013-05-11 18:53:00,55.6,52.4,30.09,North,11,1.0,4.0,89,0.00,,,0.00,Wunderground v.1.15,2013-05-12 01:53:00,
2013-05-11 18:58:00,55.7,52.2,30.08,North,11,1.0,4.0,88,0.00,,,0.00,Wunderground v.1.15,2013-05-12 01:58:00,
2013-05-11 19:04:00,56.1,52.6,30.08,North,11,2.0,4.0,88,0.00,,,0.00,Wunderground v.1.15,2013-05-12 02:04:00,
2013-05-11 19:10:00,56.6,53.1,30.09,North,11,1.0,1.0,88,0.00,,,0.00,Wunderground v.1.15,2013-05-12 02:10:00,
2013-05-11 19:16:00,56.9,53.1,30.09,North,11,0.0,4.0,87,0.00,,,0.00,Wunderground v.1.15,2013-05-12 02:16:00,
2013-05-11 19:21:00,57.1,53.3,30.08,North,11,1.0,4.0,87,0.00,,,0.00,Wunderground v.1.15,2013-05-12 02:21:00,
2013-05-11 19:27:00,57.3,53.1,30.09,North,11,0.0,4.0,86,0.00,,,0.00,Wunderground v.1.15,2013-05-12 02:27:00,
2013-05-11 19:32:00,57.2,52.7,30.09,North,11,0.0,4.0,85,0.00,,,0.00,Wunderground v.1.15,2013-05-12 02:32:00,
2013-05-11 19:37:00,55.8,51.0,30.09,North,11,2.0,4.0,84,0.00,,,0.00,Wunderground v.1.15,2013-05-12 02:37:00,
2013-05-11 19:43:00,54.8,50.7,30.09,North,11,3.0,4.0,86,0.00,,,0.00,Wunderground v.1.15,2013-05-12 02:43:00,
2013-05-11 19:48:00,54.4,50.6,30.09,North,11,3.0,4.0,87,0.00,,,0.00,Wunderground v.1.15,2013-05-12 02:48:00,
2013-05-11 19:53:00,54.2,50.7,30.09,North,11,3.0,4.0,88,0.00,,,0.00,Wunderground v.1.15,2013-05-12 02:53:00,
2013-05-11 19:58:00,54.4,50.9,30.09,North,11,3.0,5.0,88,0.00,,,0.00,Wunderground v.1.15,2013-05-12 02:58:00,
2013-05-11 20:04:00,54.4,51.2,30.09,North,11,3.0,4.0,89,0.00,,,0.00,Wunderground v.1.15,2013-05-12 03:04:00,
2013-05-11 20:09:00,54.0,50.5,30.09,North,11,3.0,4.0,88,0.00,,,0.00,Wunderground v.1.15,2013-05-12 03:09:00,
2013-05-11 20:15:00,53.8,50.6,30.09,North,11,3.0,4.0,89,0.00,,,0.00,Wunderground v.1.15,2013-05-12 03:15:00,
2013-05-11 20:20:00,53.8,50.6,30.09,North,11,3.0,3.0,89,0.00,,,0.00,Wunderground v.1.15,2013-05-12 03:20:00,
2013-05-11 20:25:00,54.0,51.1,30.09,North,11,2.0,4.0,90,0.00,,,0.00,Wunderground v.1.15,2013-05-12 03:25:00,
2013-05-11 20:31:00,54.3,51.4,30.09,North,11,1.0,2.0,90,0.00,,,0.00,Wunderground v.1.15,2013-05-12 03:31:00,
2013-05-11 20:37:00,54.5,51.3,30.09,North,11,2.0,4.0,89,0.00,,,0.00,Wunderground v.1.15,2013-05-12 03:37:00,
2013-05-11 20:42:00,54.6,51.4,30.09,North,11,2.0,4.0,89,0.00,,,0.00,Wunderground v.1.15,2013-05-12 03:42:00,
2013-05-11 20:48:00,54.7,51.5,30.09,North,11,2.0,4.0,89,0.00,,,0.00,Wunderground v.1.15,2013-05-12 03:48:00,
2013-05-11 20:54:00,54.7,51.5,30.09,North,11,1.0,4.0,89,0.00,,,0.00,Wunderground v.1.15,2013-05-12 03:54:00,
2013-05-11 20:59:00,54.7,51.5,30.09,North,11,1.0,4.0,89,0.00,,,0.00,Wunderground v.1.15,2013-05-12 03:59:00,
2013-05-11 21:01:00,54.8,51.6,30.09,North,11,1.0,4.0,89,0.00,,,0.00,Wunderground v.1.15,2013-05-12 04:01:00,
2013-05-11 21:07:00,54.8,51.6,30.09,North,11,0.0,4.0,89,0.00,,,0.00,Wunderground v.1.15,2013-05-12 04:07:00,
2013-05-11 21:08:00,54.9,51.7,30.09,North,11,0.0,4.0,89,0.00,,,0.00,Wunderground v.1.15,2013-05-12 04:08:00,
2013-05-11 21:11:00,54.9,51.7,30.09,North,11,0.0,4.0,89,0.00,,,0.00,Wunderground v.1.15,2013-05-12 04:11:00,
2013-05-11 21:17:00,54.8,51.6,30.10,North,11,0.0,4.0,89,0.00,,,0.00,Wunderground v.1.15,2013-05-12 04:17:00,
2013-05-11 21:22:00,54.7,51.5,30.10,North,11,1.0,4.0,89,0.00,,,0.00,Wunderground v.1.15,2013-05-12 04:22:00,
2013-05-11 21:27:00,54.5,51.3,30.11,North,11,3.0,5.0,89,0.00,,,0.00,Wunderground v.1.15,2013-05-12 04:27:00,
2013-05-11 21:33:00,54.0,50.8,30.11,NNW,338,4.0,4.0,89,0.00,,,0.00,Wunderground v.1.15,2013-05-12 04:33:00,
2013-05-11 21:39:00,53.8,50.6,30.11,NNW,335,4.0,6.0,89,0.00,,,0.00,Wunderground v.1.15,2013-05-12 04:39:00,
2013-05-11 21:45:00,53.3,50.4,30.11,WNW,289,5.0,8.0,90,0.00,,,0.00,Wunderground v.1.15,2013-05-12 04:45:00,
2013-05-11 21:51:00,53.0,50.4,30.12,West,276,5.0,5.0,91,0.00,,,0.00,Wunderground v.1.15,2013-05-12 04:51:00,
2013-05-11 21:56:00,52.6,50.0,30.12,West,263,5.0,5.0,91,0.00,,,0.00,Wunderground v.1.15,2013-05-12 04:56:00,
2013-05-11 22:02:00,52.4,49.8,30.12,West,261,5.0,5.0,91,0.00,,,0.00,Wunderground v.1.15,2013-05-12 05:02:00,
2013-05-11 22:08:00,52.6,50.3,30.12,WSW,257,4.0,6.0,92,0.00,,,0.00,Wunderground v.1.15,2013-05-12 05:08:00,
2013-05-11 22:14:00,52.9,50.6,30.12,SW,224,5.0,7.0,92,0.00,,,0.00,Wunderground v.1.15,2013-05-12 05:14:00,
2013-05-11 22:20:00,52.8,50.5,30.12,SSW,202,5.0,5.0,92,0.00,,,0.00,Wunderground v.1.15,2013-05-12 05:20:00,
2013-05-11 22:25:00,52.9,50.6,30.11,SSW,199,5.0,6.0,92,0.00,,,0.00,Wunderground v.1.15,2013-05-12 05:25:00,
2013-05-11 22:31:00,52.9,50.6,30.11,SSW,199,4.0,4.0,92,0.00,,,0.00,Wunderground v.1.15,2013-05-12 05:31:00,
2013-05-11 22:37:00,53.0,50.7,30.11,SSW,199,3.0,5.0,92,0.00,,,0.00,Wunderground v.1.15,2013-05-12 05:37:00,
2013-05-11 22:42:00,53.0,50.7,30.11,SSW,199,3.0,4.0,92,0.00,,,0.00,Wunderground v.1.15,2013-05-12 05:42:00,
2013-05-11 22:48:00,53.1,50.8,30.12,SSW,199,3.0,4.0,92,0.00,,,0.00,Wunderground v.1.15,2013-05-12 05:48:00,
2013-05-11 22:53:00,53.2,50.9,30.11,SSW,199,3.0,4.0,92,0.00,,,0.00,Wunderground v.1.15,2013-05-12 05:53:00,
2013-05-11 22:59:00,53.3,51.0,30.11,SSW,199,3.0,4.0,92,0.00,,,0.00,Wunderground v.1.15,2013-05-12 05:59:00,
2013-05-11 23:05:00,53.4,51.1,30.11,SSW,199,2.0,4.0,92,0.00,,,0.00,Wunderground v.1.15,2013-05-12 06:05:00,
2013-05-11 23:10:00,53.6,51.3,30.11,SSW,199,2.0,2.0,92,0.00,,,0.00,Wunderground v.1.15,2013-05-12 06:10:00,
2013-05-11 23:15:00,53.8,51.5,30.11,SSW,199,1.0,4.0,92,0.00,,,0.00,Wunderground v.1.15,2013-05-12 06:15:00,
2013-05-11 23:21:00,54.1,52.1,30.11,SSW,199,2.0,3.0,93,0.00,,,0.00,Wunderground v.1.15,2013-05-12 06:21:00,
2013-05-11 23:27:00,54.3,52.0,30.11,SSW,199,2.0,4.0,92,0.00,,,0.00,Wunderground v.1.15,2013-05-12 06:27:00,
2013-05-11 23:33:00,54.3,52.0,30.11,SSW,199,2.0,4.0,92,0.00,,,0.00,Wunderground v.1.15,2013-05-12 06:33:00,
2013-05-11 23:38:00,54.2,51.9,30.11,SSW,199,1.0,4.0,92,0.00,,,0.00,Wunderground v.1.15,2013-05-12 06:38:00,
2013-05-11 23:43:00,54.1,51.8,30.11,SSW,199,1.0,4.0,92,0.00,,,0.00,Wunderground v.1.15,2013-05-12 06:43:00,
2013-05-11 23:49:00,54.2,51.9,30.11,SSW,199,1.0,4.0,92,0.00,,,0.00,Wunderground v.1.15,2013-05-12 06:49:00,
2013-05-11 23:55:00,54.3,52.0,30.11,SSW,199,1.0,4.0,92,0.00,,,0.00,Wunderground v.1.15,2013-05-12 06:55:00,